Regional Weather Roundup
Issued by NWS Charleston, SC

Current Version | Previous Version | Text Only | Print | Product List | Glossary Off
Versions: 1 2 3 4 5 6 7 8 9 10 11 12 13 14 15 16 17 18 19 20 21 22 23 24 25 26 27 28 29 30 31 32 33 34 35 36 37 38 39 40 41 42 43 44 45 46 47 48 49 50

000
ASUS42 KCHS 300113
RWRCHS

REGIONAL WEATHER ROUNDUP
NATIONAL WEATHER SERVICE CHARLESTON SC
900 PM EDT FRI JUL 29 2016

NOTE: "FAIR" INDICATES FEW OR NO CLOUDS BELOW 12,000 FEET WITH NO
SIGNIFICANT WEATHER AND/OR OBSTRUCTIONS TO VISIBILITY.

NOT ALL STATIONS ARE QUALITY CONTROLLED. USE DATA WITH CAUTION...
ESPECIALLY DEWPOINT OBSERVATIONS.

SCZ027-030-031-034>040-042>050-300200-
...SOUTHEAST SOUTH CAROLINA...

CITY           SKY/WX    TMP DP  RH WIND       PRES   REMARKS
N CHARLESTON   PTCLDY    86  76  71 SW10      29.94R HX  96
WATERFRONT PRK   N/A     87  80  79 SW7       29.92R HX 103
MOUNT PLEASANT FAIR      86  79  79 S7        29.94S HX  99
JOHNS ISLAND   FAIR      86  79  79 S9        29.95R HX  99
PINOPOLIS        N/A     90  72  55 VRB2      29.85R HX  96
MONCKS CORNER  FAIR      84  72  65 S7        29.93R
SUMMERVILLE    NOT AVBL
BEAUFORT MCAS  CLEAR     88  78  72 S6        29.95R HX 101
BEAUFORT ARPT  FAIR      86  79  79 SW7G16    29.95R HX  99
HILTON HEAD IS CLEAR     88  79  74 S8        29.96R HX 102
WALTERBORO     CLEAR     90  72  55 CALM      29.95R HX  96
ALLENDALE      FAIR      90  70  51 CALM      29.93S HX  95

...SOUTHERN MIDLANDS AND PEE DEE...

CITY           SKY/WX    TMP DP  RH WIND       PRES   REMARKS
GEORGETOWN     FAIR      82  77  83 SW9       29.94R HX  91
KINGSTREE      MOCLDY    84  72  65 W5        29.93R
ORANGEBURG     CLEAR     86  71  60 S3        29.93R HX  91
BARNWELL       NOT AVBL
AIKEN          FAIR      86  66  51 SW3       29.98R
MANNING        FAIR      86  72  62 CALM      29.92R HX  92
COLUMBIA       PTCLDY    91  70  49 E5        29.92R HX  96
SUMTER         LGT RAIN  79  73  83 SE5       29.91F
FLORENCE       CLOUDY    80  76  87 E6        29.94R
MYRTLE BEACH   NOT AVBL
N MYRTLE BEACH CLEAR     85  80  85 SW9       29.93R HX  99

$$

GAZ063-065-086>088-099>101-113>116-118-119-134>141-150-300200-
...SOUTHEAST GEORGIA...

CITY           SKY/WX    TMP DP  RH WIND       PRES   REMARKS
SAVANNAH ARPT  PTCLDY    88  76  67 S10       29.95R HX  99
HUNTER AAF     CLEAR     87  81  81 S7        29.93R HX 104
FORT STEWART   NOT AVBL
STATESBORO     PTCLDY    85  78  78 CALM      29.95R HX  96
SYLVANIA       NOT AVBL
CLAXTON        FAIR      86  73  65 CALM      29.95R HX  94

...CSRA...CENTRAL AND FAR SOUTHEAST GEORGIA...

CITY           SKY/WX    TMP DP  RH WIND       PRES   REMARKS
THOMSON        NOT AVBL
AUGUSTA-BUSH   CLEAR     91  66  43 SW3       29.92R HX  93
AUGUSTA-DANIEL PTCLDY    93  66  40 VRB3      29.95R HX  96
SWAINSBORO     FAIR      90  66  45 W3        29.96R HX  92
VIDALIA        CLEAR     90  64  43 SW3       29.96S HX  91
EASTMAN        FAIR      89  56  32 SW3       29.99R
HAZLEHURST     FAIR      89  70  52 CALM      29.96R HX  94
ALMA           CLEAR     86  67  52 SW3       29.97R
WAYCROSS       CLEAR     90  73  55 SW6       29.98R HX  98
JESUP          FAIR      86  77  74 CALM      29.97R HX  97
BAXLEY         FAIR      91  72  52 CALM      29.96R HX  98
BRUNSWICK      PTCLDY    88  81  79 S15       29.99R HX 105
SAINT SIMONS   CLEAR     87  78  74 S15G24    29.99R HX 100

$$

SCZ027-028-034-036>038-045-046-048>050-GAZ119-141-300200-
...LAKE AND SUPPLEMENTAL COASTAL OBSERVATIONS...

STATION/POSITION TIME  TEMP    WIND        PRES    WAVE   SWELL
                       AIR SEA DIR/SP/G            HT/PER HT/PER/DIR
                 (UTC) (F)     (DEG/KT/KT) (MB)    (FT/S) (FT/S/D)
WINYAH BAY       2345   87     220/ 10     1012.0
LAKE MURRAY      0000   91      CALM  /  3 1012.2R
ACE BASIN NERRS  NOT AVBL
FORT PULASKI     0000      88                N/A
SAPELO ISLAND    0000   89     180/ 12     1014.0S

$$

ANZ835-935-AMZ111-154-330-350-352-354-370-450-454-472-300200-
...C-MAN AND BUOY OBSERVATIONS...

STATION/POSITION TIME  TEMP    WIND        PRES    WAVE   SWELL
                       AIR SEA DIR/SP/G            HT/PER HT/PER/DIR
                 (UTC) (F)     (DEG/KT/KT) (MB)    (FT/S) (FT/S/D)
BUOY 41004       0050   86 86  210/ 17/ 19 1013.3R   4/ 4   2/160/ 8
BUOY 41008       0050   87 87  170/ 17/ 19 1014.5R   3/ 4
FOLLY BEACH CMAN 0000   86     210/ 18/ 20 1014.0R
CAPERS NEARSHORE 0008   85 85  230/ 17/ 23 1013.8R
FRIPP NEARSHORE  0008   87 87  200/ 17/ 21 1013.1R


STATION/POSITION TIME  TEMP    WIND        PRES    WAVE   SWELL
                       AIR SEA DIR/SP/G            HT/PER HT/PER/DIR
                 (UTC) (F)     (DEG/KT/KT) (MB)    (FT/S) (FT/S/D)
5E ST. MARYS GA  0101      86                N/A     3/ 4
FRYING PAN BUOY  0000   86 85  210/ 14/ 17 1013.3R
BUOY 41025       0050   85 86  240/ 17/ 19 1013.0R   4/ 5   2/120/13
CAPE LOOKOUT NC  0000   85     220/ 10/ 13 1012.6R
BUOY 41002       0050   85 85  210/ 10/ 12 1015.8R   3/ 7   3/240/ 7
BUOY 41010       0020   85 87  230/  4/  4 1016.8R
ST AUGUSTINE FL  0100   83 87  200/ 10/ 12 1017.2R


$$



USA.gov is the U.S. government's official web portal to all federal, state and local government web resources and services.